Vertical_Velocity
-0 0 -1 -1 -3 -1 1 1 0 -2 -6 -3 -5 -3 -5 -3 -3 0 -4 -7 -12 6 13 -6 6 7 9 -1 1 10 2 -1 -8 3 -19 -3 1 -4 6 13 6 -2 -4 3 -5
2 1 0 -2 -2 -2 -1 -0 -1 2 -0 -1 -2 -4 -0 1 -2 -4 -1 7 -1 -7 -2 -1 -8 4 -4 3 3 3 4 -10 -4 -4 -4 -3 5 4 -0 0 0 -2 11 4 2
-2 0 1 1 0 -0 -0 -1 1 -2 -2 -1 -0 -2 -2 -4 -6 -1 -2 5 1 3 7 -2 5 5 7 2 -2 -2 -5 -5 -11 -2 4 -0 -2 5 2 -3 -2 -12 -3 -0 1
-3 -3 -1 -1 -2 -1 1 3 3 0 -0 -1 -1 -1 -3 0 -4 3 5 -2 5 1 7 -2 3 2 3 0 1 5 -2 -0 -14 -2 3 -1 1 -5 7 -24 17 -3 -12 -4 2
-3 -4 -6 -7 -7 -7 -6 -8 -8 -5 -1 2 3 2 -5 -1 -32 13 4 4 1 -0 2 2 7 1 -0 0 3 6 -5 2 -1 -0 -3 7 -5 -9 -7 -7 26 13 8 -2 4
-5 -5 -5 -4 -2 -2 -3 -5 -4 -4 -4 -4 -2 -1 1 5 -7 -2 -2 5 -3 -3 2 3 5 9 2 -1 6 -0 1 -5 -2 -7 0 12 -11 25 -26 2 16 7 -0 3 -5
-2 -3 -1 -0 -1 -1 -3 -3 -3 1 -0 -1 -1 -3 1 -46 4 -5 5 -4 2 -1 -10 5 -5 6 5 -0 -6 -3 9 -1 -3 -6 -8 9 -0 -3 -16 10 3 4 8 3 -8
-1 -0 -1 -2 -2 -2 -3 -3 -3 6 -3 1 0 5 -12 -17 2 -8 3 -3 -1 -0 -2 2 4 0 7 -7 -9 8 8 8 -23 2 -22 4 -23 -13 -6 9 -3 6 2 5 5
-1 -1 -2 -0 0 -2 -2 -5 -0 -4 -0 -0 -3 2 -17 -4 -3 1 4 -7 -5 -0 4 -2 21 -1 1 5 2 1 -2 4 -3 -2 0 1 -9 -14 -3 5 -0 -1 6 1 5
-4 -3 -1 -2 1 -2 -3 -3 -3 3 -4 -4 2 12 -8 -12 3 -5 -1 -3 -6 -4 -18 7 6 3 6 7 -13 -6 6 2 -6 -14 7 2 -5 -5 -3 6 -3 -3 -0 5 1
-2 -2 -0 -1 -0 -0 -8 -12 -42 -7 -4 -3 -8 -6 -7 -4 7 -8 0 3 1 -0 -0 -4 10 -2 -13 -5 -6 0 5 -1 -9 -3 4 -4 -1 -6 -4 5 2 -1 -1 -4 5
-3 -4 -2 -0 0 1 2 -2 19 12 -10 18 -9 -6 2 33 -8 1 14 4 5 -1 0 -3 -3 -10 2 2 6 5 3 -9 -7 -0 13 -1 -5 -4 -0 -4 -5 -1 -3 -3 -2
-1 -3 -4 -3 1 1 1 -1 4 4 5 -24 -0 -2 -2 8 -5 -25 4 -1 3 4 -0 3 -25 3 9 -2 8 -3 -0 -3 -9 -0 1 8 -1 1 -5 4 2 -1 -4 0 -5
0 -3 -5 -9 2 -3 1 0 -2 3 -4 -16 3 6 -33 6 -3 26 24 10 3 -2 0 -2 -14 3 4 0 3 3 -6 2 3 10 -6 0 -12 1 -3 -2 2 -3 2 -3 -3
-1 -3 0 5 -8 -3 1 -4 -4 5 -9 -17 -2 15 16 9 -4 -15 -20 -11 -0 -5 6 -19 -1 2 8 -26 6 -11 5 1 1 2 16 0 14 -18 5 2 -4 -3 -4 -4 -8
0 1 -5 6 3 2 -1 -0 -2 -23 -17 -5 7 -2 -10 -5 -3 -5 -7 7 7 4 2 -11 -6 5 2 -6 -1 -4 10 1 2 5 18 -17 9 -9 -3 -23 -3 -1 -2 -5 -3
-3 -0 -0 2 -12 2 -1 -5 -17 -7 -14 -3 -0 -3 1 -2 -6 1 0 -0 -1 2 0 -3 -5 -2 5 6 6 14 10 2 12 10 -11 -3 20 -35 -6 -4 -8 -6 -5 -1 -4
-1 -3 -1 5 -1 2 -4 -13 -7 -7 -1 -3 0 -5 3 1 -5 -2 0 1 2 2 1 2 -18 0 -3 -2 -7 -6 -5 -2 -3 -2 -5 1 -5 -69 -14 -1 -4 -2 -3 2 -1
-2 -3 -2 2 3 0 -3 -5 -10 -1 3 1 -12 1 -2 -8 10 1 0 1 1 1 2 1 -7 -3 3 -1 -2 -3 6 -19 1 0 5 -4 0 8 1 -1 0 -1 3 -4 -1
-3 -5 -1 3 -4 5 -6 -3 -1 1 2 -1 2 4 2 -4 3 0 -1 -3 -1 0 -1 -5 -1 0 -10 9 3 -1 -3 9 5 3 1 -2 -1 -23 5 -4 -1 0 -1 -2 2
-2 -5 -1 10 0 -2 -4 -5 -0 -1 11 4 1 0 1 2 5 -1 -5 -2 1 -2 1 1 5 -17 -4 2 -0 3 3 3 -0 0 -2 -0 -9 -14 -3 -2 -3 -4 -4 -4 -5
-1 -3 5 7 -8 1 -1 -2 3 -5 -2 -1 1 2 3 0 0 1 1 3 1 -0 -0 -5 -2 -0 -3 -1 5 -1 -0 -2 -2 1 -1 -1 -15 0 0 -0 0 -1 1 2 -3
-1 -4 4 2 -4 -2 -3 -2 3 -0 -1 -1 -0 4 -0 3 -1 3 -0 -5 2 1 0 -2 -6 -3 -8 -7 -6 -0 -1 1 1 1 -1 -1 -12 1 -1 -2 1 0 -1 2 -0
-2 -5 -2 2 2 -0 1 -2 -1 -3 -2 1 1 1 -2 -2 -1 -3 -2 -4 -4 2 1 4 -0 -6 -2 -5 2 -0 -2 -1 3 2 -2 -4 -5 -2 -0 0 -2 -2 2 2 2
-1 -5 -1 -5 -6 -0 0 2 -0 -1 -0 2 -3 1 1 -0 -2 1 -2 -8 -5 2 -2 3 0 1 -1 -1 2 -0 1 -1 3 -1 3 3 1 -2 2 1 1 5 3 -4 -9
-1 -1 2 -1 -1 3 -1 -2 2 -7 4 -6 4 -2 1 -1 -2 -2 7 1 1 -5 -0 -2 -1 1 -2 -1 2 1 -1 0 -0 -3 1 1 -4 0 0 1 -3 3 -2 0 -1
1 -5 4 -5 -0 0 -3 -4 -3 4 -10 5 5 4 0 -5 4 -1 3 -2 -0 7 -1 3 0 -1 -4 0 -0 2 -7 -2 -2 0 -4 0 -4 1 -5 -1 0 0 -2 1 -5
Height
1520 1517 1516 1515 1515 1515 1514 1511 1508 1505 1503 1501 1499 1497 1494 1491 1489 1488 1483 1491 1494 1497 1495 1494 1495 1497 1497 1494 1496 1498 1504 1495 1488 1489 1468 1470 1473 1467 1466 1461 1459 1461 1459 1461 1471
1517 1515 1515 1513 1513 1512 1511 1508 1506 1503 1501 1499 1498 1494 1491 1487 1484 1481 1482 1487 1486 1487 1486 1489 1489 1494 1492 1490 1491 1490 1489 1476 1473 1473 1470 1470 1473 1468 1470 1464 1457 1459 1460 1464 1469
1516 1515 1513 1512 1511 1510 1509 1507 1504 1501 1499 1497 1494 1491 1491 1486 1481 1481 1478 1479 1480 1481 1481 1483 1487 1492 1489 1485 1482 1480 1472 1474 1470 1469 1474 1470 1468 1470 1468 1462 1452 1455 1462 1465 1468
1515 1514 1512 1511 1510 1509 1507 1505 1501 1499 1497 1495 1493 1488 1485 1484 1487 1482 1479 1478 1480 1479 1478 1478 1482 1486 1485 1479 1475 1479 1466 1470 1467 1468 1471 1467 1464 1462 1465 1460 1457 1448 1452 1460 1464
1514 1512 1511 1510 1509 1507 1505 1503 1501 1498 1494 1491 1488 1485 1482 1482 1479 1478 1477 1475 1475 1475 1476 1475 1476 1477 1477 1472 1472 1469 1462 1464 1465 1465 1462 1465 1459 1458 1456 1455 1458 1451 1453 1457 1460
1513 1511 1510 1509 1507 1505 1502 1499 1497 1494 1492 1489 1487 1485 1483 1479 1473 1475 1472 1471 1470 1469 1470 1474 1474 1473 1471 1468 1469 1455 1457 1460 1460 1456 1455 1460 1452 1458 1446 1450 1451 1453 1450 1454 1459
1512 1511 1509 1507 1505 1502 1499 1496 1493 1491 1488 1487 1485 1484 1479 1467 1471 1470 1468 1466 1465 1464 1462 1467 1472 1471 1469 1464 1463 1458 1460 1455 1450 1448 1445 1454 1450 1444 1442 1445 1446 1449 1447 1449 1453
1512 1510 1507 1505 1502 1499 1495 1492 1489 1486 1482 1482 1482 1481 1471 1466 1465 1463 1464 1462 1462 1461 1458 1460 1464 1466 1467 1465 1460 1455 1458 1457 1433 1442 1433 1451 1441 1433 1438 1440 1440 1442 1446 1447 1449
1511 1508 1506 1504 1500 1496 1492 1489 1485 1480 1478 1477 1479 1479 1466 1462 1459 1460 1460 1459 1458 1457 1457 1457 1460 1459 1463 1464 1466 1457 1449 1442 1433 1430 1430 1439 1438 1426 1432 1433 1432 1433 1439 1443 1446
1510 1507 1505 1502 1498 1494 1490 1486 1482 1479 1477 1476 1476 1477 1464 1459 1457 1458 1457 1457 1455 1452 1449 1450 1452 1450 1450 1457 1449 1445 1440 1428 1418 1417 1426 1427 1428 1424 1425 1426 1425 1425 1429 1435 1439
1508 1506 1503 1500 1497 1492 1489 1483 1483 1481 1477 1477 1470 1464 1457 1457 1458 1456 1455 1455 1453 1452 1452 1449 1443 1433 1432 1439 1441 1434 1427 1422 1405 1419 1424 1419 1425 1422 1419 1419 1418 1420 1422 1425 1429
1507 1505 1502 1499 1494 1492 1490 1487 1489 1489 1473 1462 1456 1456 1451 1456 1453 1441 1452 1454 1449 1448 1449 1451 1443 1438 1435 1434 1436 1433 1428 1418 1409 1414 1416 1414 1414 1414 1414 1410 1410 1413 1415 1417 1422
1505 1503 1500 1496 1493 1492 1489 1487 1486 1484 1478 1453 1451 1450 1447 1448 1451 1438 1446 1444 1445 1444 1445 1448 1426 1435 1440 1432 1433 1424 1420 1410 1408 1409 1405 1413 1416 1413 1403 1405 1406 1406 1406 1410 1412
1503 1501 1499 1495 1495 1490 1487 1485 1484 1482 1486 1462 1450 1450 1451 1450 1448 1444 1443 1440 1441 1437 1439 1435 1425 1424 1425 1426 1429 1429 1408 1404 1410 1417 1415 1399 1415 1401 1401 1400 1399 1396 1398 1402 1405
1500 1498 1497 1494 1492 1488 1487 1483 1481 1481 1521 1454 1450 1451 1450 1448 1442 1445 1443 1440 1435 1431 1435 1420 1417 1415 1410 1409 1417 1420 1411 1402 1404 1408 1407 1399 1405 1389 1388 1395 1384 1384 1387 1393 1397
1497 1495 1494 1492 1490 1488 1485 1482 1480 1497 1505 1453 1450 1451 1447 1445 1446 1442 1440 1439 1436 1432 1426 1418 1417 1420 1406 1398 1401 1416 1415 1408 1402 1395 1398 1388 1396 1382 1378 1369 1371 1376 1379 1382 1388
1493 1492 1490 1488 1486 1486 1484 1482 1497 1511 1465 1454 1452 1453 1448 1446 1440 1440 1437 1438 1437 1431 1427 1409 1401 1402 1403 1393 1390 1401 1407 1398 1397 1396 1389 1372 1385 1354 1354 1352 1359 1365 1369 1374 1378
1489 1488 1485 1482 1482 1483 1484 1486 1508 1480 1466 1458 1456 1451 1447 1445 1439 1436 1435 1435 1433 1434 1430 1419 1405 1397 1394 1396 1378 1385 1386 1382 1377 1377 1380 1360 1374 1339 1343 1350 1353 1357 1361 1366 1368
1487 1485 1482 1480 1480 1481 1485 1506 1496 1476 1465 1464 1457 1452 1448 1447 1446 1438 1437 1428 1432 1434 1437 1427 1412 1386 1384 1382 1384 1381 1374 1380 1388 1387 1375 1362 1362 1330 1348 1347 1348 1351 1356 1357 1359
1486 1483 1481 1480 1480 1481 1486 1489 1478 1469 1467 1464 1465 1459 1458 1449 1449 1440 1437 1432 1431 1431 1431 1426 1412 1394 1384 1380 1378 1377 1381 1381 1379 1377 1375 1365 1354 1340 1336 1333 1341 1349 1351 1352 1354
1486 1483 1481 1481 1481 1482 1491 1489 1473 1468 1468 1465 1462 1459 1454 1454 1452 1442 1429 1427 1429 1426 1428 1424 1420 1392 1392 1378 1374 1382 1376 1378 1377 1376 1370 1366 1356 1316 1336 1339 1342 1342 1345 1347 1349
1486 1485 1480 1480 1483 1482 1488 1475 1471 1467 1465 1461 1459 1456 1453 1451 1446 1443 1432 1428 1424 1424 1423 1421 1429 1408 1384 1388 1387 1368 1370 1369 1367 1371 1365 1358 1357 1323 1326 1332 1333 1336 1337 1337 1341
1485 1482 1477 1477 1490 1489 1476 1472 1470 1466 1463 1460 1458 1455 1452 1449 1449 1440 1434 1428 1424 1424 1421 1417 1422 1431 1385 1390 1391 1392 1393 1388 1380 1374 1356 1363 1356 1330 1336 1336 1340 1339 1338 1336 1335
1486 1484 1476 1474 1475 1475 1475 1471 1468 1465 1462 1459 1456 1454 1452 1450 1448 1443 1437 1429 1426 1420 1416 1416 1417 1426 1422 1409 1405 1394 1391 1388 1384 1368 1361 1357 1348 1343 1343 1344 1346 1341 1338 1334 1336
1483 1480 1477 1480 1475 1473 1474 1472 1469 1465 1459 1456 1454 1453 1453 1452 1446 1439 1438 1432 1425 1421 1421 1417 1417 1416 1409 1403 1401 1395 1391 1388 1386 1380 1374 1356 1358 1347 1349 1351 1352 1345 1341 1335 1342
1481 1479 1476 1473 1471 1470 1468 1468 1465 1461 1460 1457 1455 1451 1450 1454 1448 1443 1439 1438 1432 1420 1422 1421 1409 1407 1400 1391 1386 1390 1383 1380 1378 1377 1376 1370 1362 1353 1351 1351 1347 1344 1348 1342 1345
1477 1477 1477 1469 1467 1468 1467 1462 1460 1459 1455 1454 1452 1450 1448 1444 1440 1436 1433 1429 1425 1422 1419 1422 1419 1415 1410 1396 1396 1398 1375 1372 1371 1371 1365 1364 1359 1360 1356 1354 1351 1347 1344 1343 1348